Regional Weather Roundup
Issued by NWS Cleveland, OH

Home | Current Version | Previous Version | Text Only | Print | Product List | Glossary Off
Versions: 1 2 3 4 5 6 7 8 9 10 11 12 13 14 15 16 17 18 19 20 21 22 23 24 25 26 27 28 29 30 31 32 33 34 35 36 37 38 39 40 41 42 43 44 45 46 47 48 49 50

000
ASUS41 KCLE 251500
RWRCLE
OHIO REGIONAL WEATHER ROUNDUP
NATIONAL WEATHER SERVICE WILMINGTON, OH
1000 AM EST SUN FEB 25 2018

NOTE: "FAIR" INDICATES FEW OR NO CLOUDS BELOW 12,000 FEET WITH NO
SIGNIFICANT WEATHER AND/OR OBSTRUCTIONS TO VISIBILITY.

OHZ001>008-015>018-024>027-034-035-043-044-251600-
   NORTHWEST OHIO

CITY           SKY/WX    TMP DP  RH WIND       PRES   REMARKS
DEFIANCE       PTSUNNY   38  31  76 W17G29    29.90R
FINDLAY        FAIR      41  32  70 W26G39    29.87R
TOLEDO EXPRESS CLOUDY    40  33  76 SW29G39   29.85R
TOLEDO EXEC    FAIR      40  31  70 W23G35    29.85R
LIMA           FAIR      38  33  82 W25G37    29.91R
$$

OHZ009>014-019>023-028>033-038-089-251600-
   NORTHEAST OHIO

CITY           SKY/WX    TMP DP  RH WIND       PRES   REMARKS
CLE-HOPKINS    PTSUNNY   47  38  71 SW22G32   29.85R
CLE-LAKEFRONT  FAIR      47  37  68 SW18G28   29.81R
CUY CO. ARPT   PTSUNNY   48  39  71 W18       29.82R
LORAIN-ELYRIA  FAIR      44  32  62 W25G33    29.84R
ASHTABULA      NOT AVBL
AKRON-CANTON   CLOUDY    49  37  63 W18G29    29.87R
WOOSTER        NOT AVBL
MANSFIELD      FAIR      43  35  73 SW16G24   29.88R
YOUNGSTOWN     CLOUDY    52  38  58 W21G39    29.82R
$$

OHZ042-051>053-060>062-070>072-077>081-251600-
  SOUTHWEST OHIO

CITY           SKY/WX    TMP DP  RH WIND       PRES   REMARKS
CINC-COVINGTON PTSUNNY   45  36  70 W13       30.00R
CINC-LUNKEN    FAIR      47  38  71 W13       30.02R
HAMILTON       FAIR      46  35  65 W9G17     30.01R
DAYTON         NOT AVBL
WRIGHT-PAT AFB CLOUDY    44  36  71 SW12      29.96R
DAYTON GENERAL FAIR      45  34  65 SW12      29.96R
WILMINGTON     FAIR      46  40  79 W13       29.96R
$$

OHZ036-037-039>041-045>050-054>059-063>069-073>076-082>088-251600-
  CENTRAL AND SOUTHEAST OHIO

CITY           SKY/WX    TMP DP  RH WIND       PRES   REMARKS
COLUMBUS       CLOUDY    48  39  71 W13       29.93R
OSU AIRPORT    FAIR      47  41  80 W8        29.93R
BOLTON FIELD   SUNNY     46  37  71 W12       29.95R
RICKENBACK AFB NOT AVBL
NEWARK         FAIR      49  40  71 W15       29.93R
MARION         FAIR      44  35  70 W12G21    29.91R
LANCASTER      FAIR      48  39  71 W10       29.96R
ZANESVILLE     FAIR      51  39  63 W14       29.93R
NEW PHILLY     FAIR      52  39  61 W13G21    29.90R
$$




USA.gov is the U.S. government's official web portal to all federal, state and local government web resources and services.